Wind_Speed
18 19 19 20 20 19 17 16 16 17 17 16 16 15 15 14 14 13 11 11 10 10 9 8 7 6 5 5 5 5 5 4 4 4 4 5 5 6 7 8 9 9 10 11 12 12 13 14 15
19 19 20 20 20 19 17 16 17 18 18 17 17 16 15 15 14 13 12 11 11 10 9 8 8 7 6 6 5 6 5 5 5 5 5 6 6 7 8 9 10 10 11 11 12 13 14 15 16
20 20 21 21 20 18 17 17 18 18 18 18 18 17 16 15 14 13 12 12 11 11 10 9 9 8 7 6 6 6 6 6 6 6 6 7 7 8 9 10 10 11 12 12 13 14 15 16 17
22 22 22 22 20 18 18 18 19 19 19 19 18 18 16 15 15 14 13 13 12 12 11 10 9 9 8 7 7 7 7 7 7 7 8 8 8 9 9 10 11 12 13 14 15 15 16 17 18
24 24 24 22 20 20 19 19 20 20 20 19 19 18 17 16 16 15 15 14 14 13 12 11 10 10 9 8 8 8 8 8 8 8 9 9 9 9 10 10 11 12 13 14 15 15 16 17 18
26 25 25 22 21 20 20 20 21 21 21 21 20 19 18 17 17 16 16 15 15 14 13 13 12 11 10 9 9 9 8 8 9 9 9 10 10 10 10 11 12 13 14 14 15 16 17 17 18
28 27 26 24 23 22 21 22 21 21 22 21 21 21 20 19 18 18 17 16 16 15 15 14 13 12 12 11 10 10 9 10 10 10 10 11 11 11 11 12 13 14 14 15 16 17 17 18 18
30 29 28 26 24 23 23 23 23 23 23 22 22 21 21 20 20 19 18 18 17 17 16 15 15 14 13 12 11 11 11 11 11 11 11 11 11 12 12 13 14 14 15 16 17 17 18 18 18
32 32 29 27 26 25 25 24 24 24 24 23 23 22 22 22 22 21 20 19 19 18 18 17 16 15 14 13 12 12 12 12 12 12 12 12 12 13 14 14 15 15 16 16 17 18 18 18 18
34 33 30 28 28 28 27 26 26 25 25 25 24 23 23 23 23 22 21 21 20 20 19 18 18 16 15 15 14 14 13 13 13 13 13 13 14 14 15 15 16 16 17 17 18 18 19 19 19
36 34 31 31 31 31 29 28 27 27 27 27 26 25 25 25 24 23 22 22 21 21 20 20 19 18 17 16 16 16 15 15 15 15 15 15 15 15 16 16 17 17 18 18 19 19 20 20 20
37 35 34 34 34 33 32 30 30 29 29 29 28 27 27 26 26 25 24 23 23 22 22 21 20 19 18 18 18 17 17 16 16 16 16 16 17 17 17 18 18 19 19 20 20 21 21 21 21
39 37 37 36 37 36 35 33 32 30 31 30 29 28 28 28 28 27 26 25 24 24 23 23 22 21 20 20 19 19 18 18 18 17 18 18 18 18 19 19 20 20 20 21 21 22 22 22 23
39 38 39 39 39 38 37 36 34 31 32 32 32 31 30 30 30 29 27 27 26 25 25 24 23 23 22 21 21 20 20 19 19 19 20 20 20 20 20 21 21 21 22 22 22 23 23 24 24
40 40 41 41 40 40 40 39 36 33 34 34 33 33 32 31 31 30 29 29 28 27 26 25 25 24 24 23 22 22 21 21 21 21 22 22 22 22 22 22 22 23 23 23 24 24 25 26 26
42 42 41 41 41 41 42 40 36 37 37 35 35 35 34 33 33 32 32 31 30 29 28 27 26 26 25 25 24 23 23 23 23 23 23 24 23 24 24 24 24 24 24 24 25 26 26 27 28
42 42 41 39 41 42 43 41 37 39 39 37 37 37 36 35 34 34 34 33 32 31 30 29 28 28 27 26 26 25 25 25 25 25 25 25 25 25 25 25 25 25 26 26 27 28 28 29 29
42 43 42 40 40 42 44 44 40 41 41 39 39 39 38 37 36 36 36 35 34 33 32 31 30 30 29 28 28 27 27 27 27 27 27 27 27 27 27 27 27 27 28 28 29 29 30 30 30
43 43 44 41 41 43 45 46 43 43 43 41 40 40 40 38 38 38 37 37 36 35 33 32 32 31 31 30 29 29 29 29 29 29 29 29 29 29 28 28 28 29 29 30 30 30 31 31 32
45 45 44 42 42 44 46 46 44 43 44 43 43 42 42 41 40 39 39 38 37 36 35 34 33 33 32 32 31 31 31 31 30 30 30 30 30 30 30 30 30 31 31 31 32 32 32 33 33
47 46 45 44 43 46 48 47 44 44 45 45 44 43 43 42 42 41 41 41 40 38 37 36 35 35 35 34 34 33 33 32 32 32 32 32 32 32 32 32 32 32 32 33 33 34 34 34 34
47 46 46 47 47 47 48 50 45 44 45 46 44 44 43 43 43 43 43 43 42 41 40 39 38 38 37 37 36 35 34 34 34 34 34 34 33 33 33 34 34 34 34 34 34 35 35 35 35
46 46 47 48 50 50 49 52 47 44 44 44 44 44 44 45 45 44 44 44 44 43 43 41 40 40 40 39 38 37 36 36 36 36 36 36 35 35 35 35 35 35 35 36 36 36 36 36 37
44 44 46 47 49 52 49 51 49 43 41 41 42 43 44 45 46 46 46 45 45 45 45 44 42 41 41 41 40 40 39 38 38 38 38 37 37 36 36 37 37 37 37 37 37 37 37 38 39
42 43 45 47 48 51 49 51 50 43 41 41 41 42 42 44 46 46 47 47 47 46 46 46 44 43 43 43 42 42 41 41 40 40 40 39 38 38 38 38 38 39 39 39 39 39 39 40 40
42 43 43 44 46 48 49 51 49 45 42 40 41 42 43 44 46 46 47 47 48 48 47 47 46 45 45 44 44 43 42 42 41 41 41 41 40 40 40 40 40 40 40 40 41 41 41 41 41
43 44 44 44 45 47 48 48 48 45 43 41 41 42 43 44 46 46 47 47 48 49 49 48 48 47 46 46 45 45 44 43 42 42 42 42 42 42 42 42 42 41 41 41 42 42 42 43 43
40 41 43 44 44 46 48 47 46 44 43 42 42 43 44 45 46 46 47 48 49 50 49 49 49 48 48 47 46 45 45 44 45 44 43 43 43 44 44 43 43 42 42 42 43 43 43 44 44
40 41 43 45 46 47 47 46 43 43 43 42 42 42 44 45 46 47 47 49 49 50 50 50 49 48 48 47 47 46 46 46 45 45 44 44 45 45 45 44 44 44 44 43 44 44 44 44 45
40 41 42 44 47 49 49 46 40 40 41 42 43 43 43 44 45 46 46 48 48 49 49 50 49 49 48 48 48 47 47 47 46 46 45 45 45 45 45 45 44 44 44 44 44 44 45 45 46
Wind_Direction
237 237 235 234 236 237 239 240 241 240 239 239 239 239 240 244 246 248 251 254 257 258 258 258 258 262 267 271 272 270 275 279 282 284 288 296 302 305 305 306 307 308 309 309 310 311 311 311 311
238 237 236 236 237 238 238 239 240 240 239 237 238 238 239 242 244 245 248 251 253 254 253 252 253 256 264 272 275 273 273 276 280 285 288 294 298 300 302 303 304 306 307 308 308 309 311 311 311
239 238 238 238 239 240 238 238 239 239 238 236 237 237 239 241 243 244 245 248 250 250 249 250 251 254 262 269 273 272 271 276 281 285 289 292 295 296 299 301 304 306 307 307 307 308 309 310 310
240 240 240 240 240 239 239 238 239 238 237 236 236 236 238 239 241 243 245 248 248 248 247 247 248 252 258 263 266 269 270 274 277 282 286 289 292 294 297 301 304 306 307 308 308 308 309 310 310
241 241 241 241 241 239 238 239 240 239 237 236 236 236 238 239 241 243 245 245 246 246 247 246 247 250 254 259 263 266 269 273 276 280 285 288 292 295 298 301 305 307 308 309 309 309 309 310 311
242 242 243 242 242 241 238 238 239 239 237 236 236 237 239 240 241 242 243 243 243 246 248 247 248 251 253 257 260 264 268 272 276 280 283 286 290 295 299 302 304 307 309 310 310 311 311 311 311
242 243 243 243 242 241 239 239 239 239 239 237 236 238 240 240 241 241 242 242 242 244 246 248 249 252 253 255 258 263 268 271 275 278 281 284 288 293 297 301 303 306 309 309 311 311 312 312 312
243 243 243 243 243 243 241 240 239 239 239 239 238 238 240 239 239 240 242 242 242 243 245 247 250 252 254 256 258 263 267 270 273 275 278 282 285 290 296 299 302 304 306 308 309 309 310 311 311
243 243 244 244 245 245 244 242 240 239 240 239 238 238 239 238 239 240 242 244 244 245 245 247 249 251 253 255 257 262 266 269 272 274 274 278 283 288 294 297 299 301 304 306 307 308 308 309 310
243 244 245 246 246 246 245 243 240 239 239 239 239 238 238 238 238 240 241 243 245 245 246 246 247 250 252 254 257 261 266 269 270 271 271 276 281 286 291 295 298 300 301 304 305 305 306 306 307
244 245 245 246 246 246 246 244 242 240 239 239 239 239 237 236 237 239 241 242 244 245 246 247 247 249 252 255 258 261 265 268 268 269 270 274 279 284 288 292 295 297 299 301 302 304 304 304 305
245 245 245 246 246 246 246 246 243 241 240 241 240 239 237 237 238 238 240 242 244 245 247 248 249 250 253 256 259 261 264 266 268 269 270 273 278 282 286 289 292 294 296 297 299 301 302 302 303
247 246 245 246 246 246 246 245 244 241 241 241 241 239 238 238 239 239 239 241 243 245 247 249 249 251 254 257 260 262 263 265 267 269 270 274 278 282 285 287 289 292 293 294 296 299 299 300 301
247 247 246 245 246 247 247 245 244 242 242 241 241 240 239 240 240 239 240 241 243 246 248 249 250 252 255 257 259 262 263 264 266 268 271 274 277 281 283 285 287 289 291 293 294 296 297 298 299
246 246 246 245 246 246 247 245 243 243 243 242 242 241 240 240 240 240 240 241 244 246 248 249 250 253 254 257 259 261 262 263 265 268 270 273 276 280 282 283 285 287 290 291 293 294 295 297 297
246 246 246 246 247 247 248 245 243 243 243 242 243 243 242 241 241 240 241 242 244 246 248 249 250 252 254 256 258 259 261 263 265 267 270 272 274 278 281 282 284 286 288 290 291 293 294 295 296
248 248 247 247 248 248 249 246 243 244 244 243 243 243 243 241 241 241 242 243 245 246 248 249 251 252 254 255 256 259 261 263 264 266 269 271 274 277 279 282 283 285 286 288 290 291 292 293 295
249 249 248 248 249 249 249 247 243 245 246 245 244 244 244 243 242 242 243 244 245 246 248 250 251 252 254 255 256 259 261 263 264 266 268 271 273 276 278 280 282 284 285 287 288 290 291 292 293
249 250 249 248 248 249 249 248 245 246 247 247 245 245 245 244 243 243 244 244 245 246 247 249 250 252 254 255 257 259 260 262 264 266 268 270 272 274 276 279 281 283 285 286 287 289 290 291 292
248 249 250 249 249 250 250 249 247 246 248 248 247 245 245 244 243 244 244 245 246 246 247 248 250 251 253 255 256 258 260 262 264 265 267 269 271 273 275 277 280 283 284 286 287 288 289 290 291
248 250 252 252 251 252 253 250 248 247 247 248 248 246 245 244 244 244 245 246 246 246 247 248 249 251 253 255 256 259 261 262 263 264 266 268 270 272 274 277 279 282 283 285 286 287 288 289 289
251 252 253 254 254 253 254 255 248 248 248 248 247 247 246 245 245 245 245 246 247 247 248 248 249 251 253 255 257 259 261 262 263 264 266 267 270 272 274 276 279 281 282 283 285 286 288 288 288
253 253 254 255 256 255 254 256 251 248 248 249 249 248 247 246 245 246 246 247 248 248 249 250 251 251 253 255 257 259 260 261 262 263 265 267 268 271 273 276 278 280 281 282 284 285 287 288 288
254 254 256 257 257 256 254 257 253 249 250 251 251 250 249 246 245 245 246 247 248 249 250 251 252 252 253 254 256 258 258 259 261 262 264 266 268 270 273 275 277 279 280 281 283 285 286 287 288
255 256 257 258 258 258 256 257 255 252 251 252 252 251 249 247 246 245 246 247 248 249 250 251 252 252 252 253 254 256 257 258 260 262 263 265 267 270 272 274 276 278 279 280 282 284 286 287 288
254 255 256 260 261 261 259 258 256 254 252 252 252 252 250 249 248 247 247 248 249 249 250 251 252 253 253 253 254 254 255 256 258 260 262 264 266 268 270 272 274 276 277 280 282 284 285 286 288
255 254 255 258 260 262 261 259 256 254 254 253 253 252 251 251 250 248 247 248 249 249 250 251 252 254 254 255 254 254 254 255 257 259 261 263 265 267 269 271 273 275 276 279 281 283 285 286 287
255 256 255 255 259 261 261 260 258 255 255 255 255 253 252 251 251 250 248 249 249 250 251 251 252 253 254 254 255 255 255 255 257 258 260 263 265 266 268 271 272 274 276 278 281 283 284 285 287
253 254 255 255 256 260 263 261 261 260 258 257 256 255 254 253 252 251 250 249 249 250 250 251 251 251 252 253 254 255 255 256 258 259 261 262 264 266 268 270 271 273 275 278 280 282 284 285 286
256 256 257 258 258 259 261 262 262 262 261 260 259 257 256 253 252 251 251 250 250 250 250 250 250 251 251 252 253 254 255 255 256 258 259 261 264 266 267 269 271 273 275 277 280 282 283 285 286
Height
5830 5831 5833 5835 5837 5838 5840 5842 5843 5844 5845 5846 5847 5848 5849 5851 5853 5856 5855 5854 5854 5855 5855 5855 5856 5856 5856 5856 5856 5856 5856 5856 5856 5856 5857 5857 5857 5857 5857 5856 5856 5856 5855 5855 5854 5853 5852 5851 5850
5827 5828 5830 5832 5833 5835 5838 5840 5840 5841 5842 5843 5844 5846 5847 5848 5849 5851 5851 5851 5852 5853 5853 5853 5854 5854 5854 5854 5854 5855 5855 5855 5855 5855 5855 5855 5855 5855 5855 5854 5854 5854 5853 5852 5852 5851 5850 5849 5848
5824 5825 5827 5828 5830 5832 5835 5837 5837 5838 5839 5841 5842 5843 5844 5846 5847 5848 5849 5849 5850 5851 5851 5851 5852 5852 5853 5853 5853 5853 5853 5853 5853 5853 5853 5853 5853 5853 5853 5853 5852 5852 5851 5850 5849 5849 5847 5846 5845
5820 5822 5823 5825 5827 5830 5832 5833 5833 5834 5836 5837 5839 5840 5841 5843 5844 5845 5846 5847 5848 5848 5849 5849 5850 5850 5851 5851 5851 5851 5851 5851 5851 5851 5852 5851 5851 5851 5851 5851 5850 5849 5849 5848 5847 5846 5845 5844 5842
5815 5817 5819 5821 5824 5826 5828 5829 5830 5831 5833 5834 5835 5837 5838 5840 5841 5842 5843 5844 5845 5846 5847 5847 5848 5848 5849 5849 5849 5849 5849 5849 5849 5849 5850 5849 5849 5849 5849 5848 5848 5847 5846 5845 5844 5843 5842 5841 5839
5811 5812 5815 5817 5820 5822 5824 5825 5826 5827 5829 5831 5832 5833 5835 5837 5838 5839 5840 5841 5842 5843 5844 5845 5845 5846 5846 5847 5847 5847 5847 5847 5847 5847 5847 5847 5847 5847 5846 5846 5845 5845 5844 5843 5842 5840 5839 5838 5836
5806 5807 5810 5813 5815 5818 5820 5821 5822 5823 5825 5827 5828 5829 5831 5833 5834 5835 5837 5838 5839 5840 5841 5842 5843 5843 5844 5844 5844 5845 5845 5845 5845 5845 5845 5845 5845 5844 5844 5843 5843 5842 5841 5840 5839 5838 5836 5835 5833
5799 5802 5804 5807 5810 5813 5815 5816 5818 5819 5821 5822 5824 5825 5827 5829 5830 5832 5833 5834 5836 5837 5838 5839 5840 5840 5841 5841 5841 5842 5842 5842 5842 5842 5842 5842 5842 5841 5841 5840 5840 5839 5838 5837 5836 5835 5833 5832 5830
5793 5796 5798 5803 5805 5808 5809 5811 5813 5814 5816 5818 5819 5821 5823 5824 5826 5828 5829 5831 5832 5833 5834 5836 5836 5837 5838 5838 5838 5839 5839 5839 5839 5839 5839 5839 5839 5838 5838 5837 5837 5836 5835 5834 5833 5831 5830 5828 5827
5785 5789 5794 5798 5799 5801 5803 5805 5807 5809 5811 5813 5814 5816 5817 5819 5821 5823 5825 5827 5828 5829 5830 5831 5833 5833 5834 5835 5835 5835 5836 5836 5836 5836 5836 5836 5835 5835 5835 5834 5833 5832 5832 5830 5829 5828 5826 5825 5823
5778 5783 5788 5790 5791 5793 5796 5798 5800 5802 5805 5807 5809 5810 5812 5814 5816 5818 5820 5822 5824 5825 5826 5827 5828 5829 5830 5831 5831 5832 5832 5832 5832 5832 5832 5832 5832 5832 5831 5830 5830 5829 5828 5827 5825 5824 5823 5821 5819
5772 5776 5779 5782 5783 5786 5788 5791 5794 5796 5799 5801 5802 5804 5806 5809 5811 5813 5815 5817 5819 5820 5821 5823 5824 5825 5826 5827 5827 5828 5828 5828 5828 5828 5828 5828 5828 5828 5827 5826 5826 5825 5824 5822 5821 5820 5818 5817 5815
5763 5768 5771 5773 5775 5778 5780 5783 5786 5790 5792 5794 5796 5798 5800 5803 5805 5808 5810 5811 5813 5815 5816 5818 5819 5820 5821 5822 5823 5823 5823 5824 5824 5824 5824 5824 5824 5823 5823 5822 5821 5820 5819 5818 5817 5815 5814 5812 5810
5755 5759 5761 5764 5767 5769 5772 5775 5778 5784 5785 5787 5789 5792 5794 5796 5799 5801 5804 5806 5807 5809 5811 5812 5814 5815 5816 5817 5818 5818 5819 5819 5819 5819 5819 5819 5819 5819 5818 5817 5816 5815 5814 5813 5812 5810 5809 5807 5805
5745 5749 5752 5755 5758 5761 5763 5766 5772 5777 5777 5779 5782 5785 5787 5790 5792 5795 5798 5800 5802 5803 5805 5806 5808 5809 5810 5811 5812 5813 5814 5814 5814 5814 5814 5814 5814 5813 5813 5812 5811 5810 5809 5808 5807 5805 5804 5802 5800
5736 5739 5742 5748 5750 5752 5754 5759 5766 5767 5768 5772 5775 5777 5780 5783 5786 5789 5791 5793 5795 5797 5799 5800 5802 5803 5804 5805 5807 5807 5808 5808 5809 5809 5809 5809 5808 5808 5807 5807 5806 5805 5804 5802 5801 5800 5798 5797 5795
5726 5730 5734 5740 5742 5743 5744 5750 5758 5758 5759 5763 5767 5769 5772 5775 5778 5781 5784 5786 5788 5790 5792 5793 5795 5796 5798 5799 5800 5801 5802 5802 5803 5803 5803 5803 5803 5802 5802 5801 5800 5799 5798 5797 5795 5794 5792 5791 5789
5720 5723 5726 5730 5733 5734 5735 5740 5747 5748 5750 5754 5758 5761 5764 5768 5772 5774 5776 5779 5781 5783 5785 5787 5788 5790 5791 5792 5794 5795 5796 5796 5796 5797 5797 5797 5797 5796 5796 5795 5794 5793 5792 5791 5789 5788 5786 5784 5782
5710 5713 5716 5721 5723 5724 5725 5729 5737 5739 5741 5745 5749 5753 5756 5760 5763 5765 5768 5771 5773 5776 5778 5780 5781 5783 5784 5785 5787 5788 5789 5789 5790 5790 5790 5790 5790 5790 5789 5788 5788 5787 5786 5784 5783 5781 5779 5777 5776
5701 5703 5707 5712 5713 5713 5715 5719 5725 5729 5732 5736 5739 5743 5747 5751 5754 5757 5760 5763 5766 5768 5770 5772 5774 5775 5777 5778 5780 5781 5782 5782 5783 5783 5783 5783 5783 5783 5782 5782 5781 5780 5779 5777 5776 5774 5772 5770 5769
5692 5695 5699 5701 5703 5704 5705 5708 5715 5720 5722 5725 5729 5733 5737 5741 5745 5748 5751 5754 5757 5760 5762 5764 5766 5767 5769 5770 5771 5773 5773 5774 5775 5776 5776 5776 5776 5775 5775 5774 5774 5773 5772 5770 5768 5767 5765 5763 5761
5684 5688 5689 5690 5691 5694 5696 5695 5706 5711 5713 5716 5720 5724 5728 5732 5735 5738 5741 5744 5748 5750 5753 5755 5757 5759 5760 5762 5763 5765 5766 5767 5767 5767 5768 5768 5768 5767 5767 5767 5766 5765 5764 5762 5761 5759 5757 5756 5754
5676 5679 5680 5680 5681 5682 5686 5685 5693 5700 5704 5708 5712 5715 5718 5722 5725 5728 5731 5735 5738 5740 5743 5745 5747 5749 5751 5753 5755 5756 5758 5759 5759 5759 5759 5759 5759 5759 5759 5758 5758 5757 5755 5754 5753 5751 5749 5747 5746
5666 5669 5670 5670 5670 5671 5678 5676 5681 5692 5697 5700 5703 5705 5708 5712 5715 5718 5721 5724 5727 5730 5732 5735 5737 5740 5742 5743 5745 5747 5749 5749 5750 5750 5750 5750 5751 5751 5750 5750 5749 5748 5747 5746 5744 5742 5741 5739 5737
5658 5660 5660 5659 5659 5662 5669 5666 5673 5684 5688 5691 5693 5696 5698 5700 5703 5707 5710 5713 5716 5719 5722 5724 5727 5729 5731 5733 5735 5737 5739 5739 5740 5741 5741 5741 5742 5742 5741 5741 5740 5739 5738 5737 5735 5734 5732 5730 5728
5649 5651 5652 5651 5651 5654 5656 5657 5667 5673 5677 5680 5683 5686 5687 5690 5692 5696 5699 5702 5705 5708 5711 5713 5716 5718 5720 5722 5725 5727 5728 5729 5731 5731 5732 5732 5732 5732 5732 5731 5731 5730 5729 5727 5726 5724 5723 5721 5719
5640 5641 5643 5643 5641 5642 5643 5648 5656 5663 5667 5670 5673 5675 5677 5679 5681 5684 5688 5690 5693 5696 5699 5702 5704 5707 5710 5712 5714 5716 5717 5719 5720 5721 5721 5722 5722 5722 5722 5721 5721 5720 5719 5717 5716 5715 5713 5711 5709
5631 5632 5633 5632 5631 5631 5633 5639 5646 5653 5656 5660 5662 5664 5665 5668 5670 5673 5676 5679 5682 5685 5688 5690 5693 5696 5698 5701 5703 5705 5707 5708 5709 5710 5711 5712 5712 5712 5711 5711 5710 5710 5709 5708 5706 5705 5703 5701 5699
5622 5623 5623 5623 5623 5623 5623 5632 5638 5642 5645 5648 5650 5652 5654 5656 5658 5661 5664 5667 5670 5673 5676 5679 5682 5684 5687 5689 5692 5694 5696 5697 5698 5699 5700 5701 5701 5701 5701 5700 5700 5699 5699 5697 5696 5695 5693 5691 5689
5611 5613 5614 5615 5615 5614 5614 5622 5629 5631 5633 5635 5638 5640 5642 5644 5646 5649 5652 5655 5658 5661 5664 5667 5670 5673 5675 5678 5680 5682 5684 5685 5687 5688 5689 5690 5690 5690 5690 5690 5689 5689 5688 5687 5686 5684 5682 5680 5678